{"data":{"norad_id":59939,"intl_designator":"2024-106T","name":"STARLINK-31955","alt_names":[],"object_type":"PAYLOAD","status":"ACTIVE","operator":null,"country":"US","launch_date":"2024-06-01","launch_site_code":"AFETR","launch_vehicle":null,"mission":null,"orbit_class":"UNKNOWN","rcs_meters":null,"size_class":null,"mass_kg":null,"dimensions":null,"purposes":["comms"],"wikipedia_slug":null,"has_3d_model":false,"image_url":null,"decayed_at":null,"tle_current":{"epoch":"2026-05-25T00:56:48.134400Z","epoch_age_seconds":82124,"freshness":"FRESH","line1":"1 59939U 24106T   26145.03944600 -.00000389  00000+0 -46285-5 0  9993","line2":"2 59939  43.0002 260.9831 0000797 271.6609  88.4151 15.27579022112246","mean_motion":15.27579022,"eccentricity":7.97e-5,"inclination_deg":43.0002,"raan_deg":260.9831,"arg_perigee_deg":271.6609,"mean_anomaly_deg":88.4151,"bstar":-4.6285e-6,"rev_number":11224,"period_min":94.266809065934,"perigee_km":482.50518775979,"apogee_km":483.5988612903,"semimajor_km":6861.189024525,"source":"CELESTRAK","updated_at":"2026-05-25T13:38:19.125195Z"}}}